EUTELSAT 3B (39773 NORAD) Tracking and Keplerian Element Data

This shows tracking and keplerian element data for the satellite.

Feedback or suggestion? Click here.




ElementValue
Catalog39773
NameEUTELSAT 3B
Epoch Orbit3906
Epoch Day34.68418204
Epoch Year2025
RAAN19.167
Inclination0.0643
Eccentricity0.0003358
Argument of Perigee230.1297
Mean Anonmoly134.1726
Mean Motion1.00271719
Decay Rate2.4E-07
L11 39773U 14030A 25034.68418204 .00000024 00000+0 00000+0 0 9998
L22 39773 0.0643 19.1670 0003358 230.1297 134.1726 1.00271719 39061



Live tracking and technical data element details for EUTELSAT 3B (NORAD 39773). EUTELSAT 3B can be tracked NOW for your location showing map with azimuth and elevation plus other details from your city location.







IsCatalogInMostPopularTable: catalog: 39773, numindb: 648
Update: records affected: 1



GetName: 39773 EUTELSAT 3B

Hit Count: updated at: Sat, 17 May 2025 09:10:39 GMT